Sumter, SC

5:47 PM EDT on September 25, 2017 (GMT -0400)
Sumter Municipal

Weather History for KSMS - January, 2013

Change the Weather History Date:

Thursday, January 17, 2013

  Actual Average Record
Temperature  
Mean Temperature 60 °F -  
Max Temperature 77 °F 56 °F 77 °F (2013)
Min Temperature 44 °F 31 °F 26 °F (2011)
Degree Days  
Heating Degree Days 4    
Growing Degree Days 10 (Base 50)    
Moisture  
Dew Point 56 °F    
Average Humidity 84    
Maximum Humidity 100    
Minimum Humidity 53    
Precipitation  
Precipitation 0.60 in - - ()
Sea Level Pressure  
Sea Level Pressure 29.90 in    
Wind  
Wind Speed 4 mph (SSW)    
Max Wind Speed 21 mph    
Max Gust Speed 31 mph    
Visibility 8 miles    
Events Fog , Rain    
Averages and records for this station are not official NWS values.
T = Trace of Precipitation, MM = Missing Value Source: NWS Daily Summary

Daily Weather History Graph

Daily Weather History Graph

Search for Another Location

Airport or City:

Trip Planner

Search our weather history database for the weather conditions in past years. The results will help you decide how hot, cold, wet, or windy it might be!

Date:

Astronomy

Jan. 17, 2013 Rise Set
Actual Time 7:26 AM EST 5:37 PM EST
Civil Twilight 6:59 AM EST 6:04 PM EST
Nautical Twilight 6:28 AM EST 6:35 PM EST
Astronomical Twilight 5:58 AM EST 7:05 PM EST
Moon 10:52 AM EST (1/17) No Moon Set
Length of Visible Light 11h 05m
Length of Day
10h 11m
Waxing Crescent, 37% of the Moon is Illuminated
Jan 17
Waxing Crescent
Jan 18
First Quarter
Jan 26
Full
Feb 3
Last Quarter
Feb 10
New

Hourly Weather History & Observations

Time (EST) Temp. Windchill Dew Point Humidity Pressure Visibility Wind Dir Wind Speed Gust Speed Precip Events Conditions
12:15 AM 55.4 °F - 55.4 °F 100% 29.97 in 4.0 mi Calm Calm - N/A   Clear
12:35 AM 55.4 °F - 55.4 °F 100% 29.97 in 1.2 mi Calm Calm - N/A   Clear
12:55 AM 55.4 °F - 55.4 °F 100% 29.98 in 3.0 mi Calm Calm - N/A   Partly Cloudy
1:15 AM 55.4 °F - 55.4 °F 100% 29.97 in 5.0 mi Calm Calm - N/A   Scattered Clouds
1:35 AM 55.4 °F - 55.4 °F 100% 29.97 in 8.0 mi Calm Calm - N/A   Mostly Cloudy
1:55 AM 57.2 °F - 57.2 °F 100% 29.98 in 9.0 mi Calm Calm - N/A   Mostly Cloudy
2:15 AM 57.2 °F - 57.2 °F 100% 29.97 in 8.0 mi Calm Calm - N/A   Mostly Cloudy
2:35 AM 57.2 °F - 57.2 °F 100% 29.96 in 7.0 mi Calm Calm - N/A   Overcast
2:55 AM 57.2 °F - 57.2 °F 100% 29.96 in 8.0 mi Calm Calm - N/A   Overcast
3:15 AM 57.2 °F - 57.2 °F 100% 29.96 in 10.0 mi Calm Calm - N/A   Overcast
3:35 AM 57.2 °F - 57.2 °F 100% 29.96 in 10.0 mi Calm Calm - N/A   Mostly Cloudy
3:55 AM 57.2 °F - 57.2 °F 100% 29.96 in 9.0 mi Calm Calm - N/A   Mostly Cloudy
4:15 AM 57.2 °F - 57.2 °F 100% 29.95 in 10.0 mi Calm Calm - N/A   Overcast
4:35 AM 57.2 °F - 57.2 °F 100% 29.95 in 9.0 mi Calm Calm - N/A   Mostly Cloudy
4:55 AM 55.4 °F - 55.4 °F 100% 29.95 in 7.0 mi Calm Calm - N/A   Partly Cloudy
5:15 AM 55.4 °F - 55.4 °F 100% 29.95 in 0.5 mi Calm Calm - N/A Fog Fog
5:35 AM 55.4 °F - 55.4 °F 100% 29.95 in 9.0 mi Calm Calm - N/A   Partly Cloudy
6:15 AM 55.4 °F - 55.4 °F 100% 29.95 in 9.0 mi Calm Calm - N/A   Overcast
6:35 AM 55.4 °F - 55.4 °F 100% 29.95 in 10.0 mi Calm Calm - N/A   Mostly Cloudy
6:55 AM 55.4 °F - 55.4 °F 100% 29.95 in 9.0 mi Calm Calm - N/A   Scattered Clouds
7:15 AM 55.4 °F - 55.4 °F 100% 29.95 in 9.0 mi Calm Calm - N/A   Scattered Clouds
7:35 AM 57.2 °F - 57.2 °F 100% 29.95 in 8.0 mi Calm Calm - N/A   Mostly Cloudy
7:55 AM 57.2 °F - 57.2 °F 100% 29.95 in 9.0 mi Calm Calm - N/A   Scattered Clouds
8:15 AM 59.0 °F - 59.0 °F 100% 29.95 in 9.0 mi SSE 4.6 mph - N/A   Partly Cloudy
8:35 AM 62.6 °F - 62.6 °F 100% 29.95 in 10.0 mi SSE 5.8 mph - N/A   Partly Cloudy
8:55 AM 64.4 °F - 62.6 °F 94% 29.95 in 10.0 mi SSE 5.8 mph - N/A   Clear
9:15 AM 66.2 °F - 62.6 °F 88% 29.96 in 10.0 mi South 6.9 mph - N/A   Partly Cloudy
9:35 AM 66.2 °F - 62.6 °F 88% 29.95 in 10.0 mi South 10.4 mph - N/A   Scattered Clouds
9:55 AM 68.0 °F - 62.6 °F 83% 29.95 in 10.0 mi South 10.4 mph - N/A   Scattered Clouds
10:15 AM 69.8 °F - 62.6 °F 78% 29.94 in 10.0 mi South 10.4 mph - N/A   Partly Cloudy
10:35 AM 71.6 °F - 62.6 °F 73% 29.93 in 10.0 mi South 8.1 mph - N/A   Clear
10:55 AM 71.6 °F - 62.6 °F 73% 29.91 in 10.0 mi South 6.9 mph - N/A   Clear
11:15 AM 73.4 °F - 59.0 °F 61% 29.90 in 10.0 mi SSW 6.9 mph - N/A   Clear
11:35 AM 75.2 °F - 59.0 °F 57% 29.88 in 10.0 mi South 12.7 mph 16.1 mph N/A   Partly Cloudy
11:55 AM 75.2 °F - 59.0 °F 57% 29.86 in 10.0 mi SSW 12.7 mph 20.7 mph N/A   Scattered Clouds
12:15 PM 75.2 °F - 59.0 °F 57% 29.84 in 10.0 mi South 12.7 mph 20.7 mph N/A   Partly Cloudy
12:35 PM 77.0 °F - 59.0 °F 54% 29.82 in 10.0 mi South 13.8 mph 19.6 mph N/A   Scattered Clouds
12:55 PM 75.2 °F - 59.0 °F 57% 29.81 in 10.0 mi South 15.0 mph 19.6 mph N/A   Mostly Cloudy
1:15 PM 77.0 °F - 59.0 °F 54% 29.79 in 10.0 mi SSW 11.5 mph - N/A   Mostly Cloudy
1:35 PM 77.0 °F - 59.0 °F 54% 29.77 in 10.0 mi South 13.8 mph 21.9 mph N/A   Mostly Cloudy
1:55 PM 75.2 °F - 59.0 °F 57% 29.76 in 10.0 mi SSE 8.1 mph 20.7 mph N/A   Mostly Cloudy
2:15 PM 77.0 °F - 59.0 °F 54% 29.74 in 10.0 mi SSE 17.3 mph 21.9 mph N/A   Mostly Cloudy
2:35 PM 75.2 °F - 57.2 °F 53% 29.73 in 10.0 mi South 15.0 mph 25.3 mph N/A   Mostly Cloudy
2:55 PM 77.0 °F - 59.0 °F 54% 29.72 in 10.0 mi South 16.1 mph 26.5 mph N/A   Mostly Cloudy
3:15 PM 75.2 °F - 57.2 °F 53% 29.71 in 10.0 mi South 20.7 mph 25.3 mph N/A   Mostly Cloudy
3:35 PM 75.2 °F - 57.2 °F 53% 29.71 in 10.0 mi South 18.4 mph 27.6 mph N/A   Mostly Cloudy
3:55 PM 73.4 °F - 57.2 °F 57% 29.70 in 10.0 mi SSE 12.7 mph 21.9 mph N/A   Scattered Clouds
4:15 PM 73.4 °F - 59.0 °F 61% 29.70 in 10.0 mi South 15.0 mph 18.4 mph N/A Rain Light Rain
4:35 PM 57.2 °F - 57.2 °F 100% 29.80 in 1.8 mi West 17.3 mph 31.1 mph 0.16 in Rain Light Rain
4:55 PM 55.4 °F - 55.4 °F 100% 29.81 in 3.0 mi West 16.1 mph 26.5 mph 0.26 in Rain Light Rain
5:55 PM 53.6 °F - 53.6 °F 100% 29.84 in 3.0 mi WSW 10.4 mph - 0.31 in   Overcast
6:35 PM 48.2 °F - 48.2 °F 100% 29.86 in 4.0 mi West 10.4 mph 17.3 mph 0.03 in Rain Light Rain
7:35 PM 46.4 °F 41.9 °F 44.6 °F 93% 29.92 in 10.0 mi West 9.2 mph 17.3 mph N/A   Clear
8:15 PM 46.4 °F 41.9 °F 42.8 °F 87% 29.95 in 10.0 mi West 9.2 mph 17.3 mph N/A   Clear
8:55 PM 46.4 °F 40.4 °F 39.2 °F 76% 29.98 in 10.0 mi West 13.8 mph 20.7 mph N/A   Clear
9:15 PM 46.4 °F 42.9 °F 39.2 °F 76% 30.00 in 10.0 mi West 6.9 mph 21.9 mph N/A   Clear
9:55 PM 44.6 °F 38.4 °F 39.2 °F 81% 30.03 in 10.0 mi WNW 12.7 mph - N/A   Overcast
10:15 PM 44.6 °F 38.1 °F 41.0 °F 87% 30.05 in 5.0 mi NW 13.8 mph 20.7 mph N/A   Overcast
10:55 PM 44.6 °F 38.1 °F 42.8 °F 93% 30.09 in 8.0 mi NNE 13.8 mph 24.2 mph N/A Rain Light Rain